COSMOS 643

导读

COSMOS 643(宇宙643)是独联体(CIS,继承自苏联航天体系)于1974年4月23日发射的卫星,归属苏联“宇宙(COSMOS)”系列卫星。该系列是苏联规模最大的卫星家族,涵盖军用侦察、技术试验等多种任务,COSMOS 643大概率承担冷战时期战略相关航天任务,运行于近地轨道,是苏联太空军事与航天技术发展的见证者,任务结束后已再入大气层销毁。

基本信息
目录编号:
7267
目录名称:
COSMOS 643
国际标识:
1974-024C
轨道中心:
EARTH
卫星名称:
COSMOS 643
卫星全名:
--
卫星状态:
在轨 (已飞行19046 天)
发射日期:
1974-04-23 UTC
国别 :
俄罗斯(独联体) (CIS)
星等 :
--
轨道信息
数据来源 国际轨道数据 AOE轨道数据
星历时间 2026-06-15T07:35:11+0800
7小时前
查看轨道信息
2026-06-15T06:00:00+0800
9小时前
查看轨道信息
半长轴 7794.515km 7794.514km
偏心率 0.008195 0.0081895
轨道倾角 74.017° 74.017°
近地点辐角 47.499° 47.601°
升交点赤经 119.694° 119.784°
平近点角 17.225° 77.018°
近地点 1352.501km 1352.543km
远地点 1480.255km 1480.211km
周期 114.141分钟 114.141分钟
每日圈数 12.615926 12.61593
详细信息
使用方式:
暂无
2D轨道图
3D轨道图
轨道高度分析图
轨道倾角分析图
轨道综合分析图
查看轨道综合分析图